GW0881 Weather Reports


Display with metric or nautical units.
time (UTC)temp
F
wind
direction
speed
MPH
gust
MPH
rain 1hr
in
rain 24hr
in
rain mn
in
humidity
%
barometer
mb
20260902204515 84 60 3.0 3.0 0.00 0.01 0.01 57 1009.5
20260902204011 85 73 2.0 2.0 0.00 0.01 0.01 55 1009.6
20260902203506 84 195 1.0 1.0 0.00 0.01 0.01 55 1009.8
20260902203005 84 207 3.0 3.0 0.00 0.01 0.01 55 1009.9
20260902202501 84 191 1.0 1.0 0.00 0.01 0.01 56 1010.0
20260902201958 84 228 2.0 2.0 0.00 0.01 0.01 56 1009.9
20260902201457 84 40 1.0 1.0 0.00 0.01 0.01 63 1009.9
20260902200952 83 17 2.0 2.0 0.00 0.01 0.01 60 1010.0
20260902200447 83 244 2.0 2.0 0.00 0.01 0.01 61 1009.9
20260902195943 83 330 2.0 2.0 0.00 0.01 0.01 58 1010.1
20260902195438 84 210 0.0 1.0 0.00 0.01 0.01 57 1010.1
20260902194938 84 206 1.0 1.0 0.00 0.01 0.01 57 1010.1
20260902194437 83 221 0.0 1.0 0.00 0.01 0.01 59 1010.3
20260902193932 83 282 1.0 2.0 0.00 0.01 0.01 60 1010.2
20260902193428 82 182 1.0 2.0 0.00 0.01 0.01 59 1010.5
20260902192927 82 186 0.0 0.0 0.00 0.01 0.01 58 1010.4
20260902192426 83 191 1.0 1.0 0.00 0.01 0.01 61 1010.3
20260902191925 83 226 0.0 1.0 0.00 0.01 0.01 57 1010.4
20260902191421 82 246 1.0 1.0 0.00 0.01 0.01 62 1010.3
20260902190916 82 226 1.0 1.0 0.00 0.01 0.01 61 1010.5
20260902190411 81 52 3.0 3.0 0.00 0.01 0.01 64 1010.6
20260902185906 82 207 2.0 2.0 0.00 0.01 0.01 59 1010.7
20260902185402 82 189 0.0 0.0 0.00 0.01 0.01 59 1010.8
20260902184857 82 199 3.0 3.0 0.00 0.01 0.01 59 1010.8
20260902184352 82 204 0.0 0.0 0.00 0.01 0.01 62 1010.7
20260902183848 81 255 0.0 0.0 0.00 0.01 0.01 61 1010.8
20260902183344 81 32 2.0 2.0 0.00 0.01 0.01 61 1010.9
20260902182840 81 282 1.0 2.0 0.00 0.01 0.01 61 1010.9
20260902182336 81 252 1.0 1.0 0.00 0.01 0.01 63 1010.9
20260902181827 81 185 1.0 1.0 0.00 0.01 0.01 62 1011.1
20260902181322 80 254 1.0 1.0 0.00 0.01 0.01 66 1011.1
20260902180821 81 314 2.0 2.0 0.00 0.01 0.01 65 1011.2
20260902180317 82 200 2.0 2.0 0.00 0.01 0.01 61 1011.2
20260902175812 81 235 2.0 2.0 0.00 0.01 0.01 61 1011.2
20260902175308 81 210 1.0 1.0 0.00 0.01 0.01 63 1011.1
20260902174803 81 229 1.0 1.0 0.00 0.01 0.01 63 1011.0
20260902174300 81 212 1.0 1.0 0.00 0.01 0.01 63 1011.3
20260902173755 81 191 1.0 1.0 0.00 0.01 0.01 63 1011.3
20260902173249 81 199 2.0 3.0 0.00 0.01 0.01 63 1011.4
20260902172744 80 199 1.0 1.0 0.00 0.01 0.01 64 1011.3
20260902172244 80 217 0.0 0.0 0.00 0.01 0.01 64 1011.5
20260902171738 80 219 0.0 1.0 0.00 0.01 0.01 65 1011.7
20260902171233 79 200 0.0 0.0 0.00 0.01 0.01 65 1011.7
20260902170730 79 237 1.0 1.0 0.00 0.01 0.01 67 1011.9
20260902170225 78 206 1.0 2.0 0.00 0.01 0.01 69 1011.8
20260902165721 78 61 2.0 2.0 0.00 0.01 0.01 71 1011.6
20260902165215 79 124 1.0 2.0 0.00 0.01 0.01 70 1011.6
20260902164714 77 205 3.0 3.0 0.00 0.01 0.01 69 1011.7
20260902164209 78 111 0.0 1.0 0.00 0.01 0.01 73 1011.6
20260902163704 77 216 0.0 0.0 0.00 0.01 0.01 69 1011.6
20260902163204 77 226 1.0 2.0 0.00 0.01 0.01 69 1011.7
20260902162702 77 182 1.0 1.0 0.00 0.01 0.01 70 1011.6
20260902162156 76 188 0.0 0.0 0.00 0.01 0.01 71 1011.7
20260902161652 76 224 0.0 0.0 0.00 0.01 0.01 73 1011.6
20260902161147 75 223 0.0 0.0 0.00 0.01 0.01 74 1011.5
20260902160644 75 68 1.0 1.0 0.00 0.01 0.01 77 1011.6
20260902160138 75 188 0.0 0.0 0.00 0.01 0.01 74 1011.6
20260902155637 75 212 0.0 0.0 0.00 0.01 0.01 76 1011.9
20260902155136 75 228 0.0 0.0 0.00 0.01 0.01 75 1011.6
20260902154631 75 216 0.0 1.0 0.00 0.01 0.01 75 1011.5
20260902154126 74 203 2.0 2.0 0.00 0.01 0.01 76 1011.4
20260902153625 74 214 0.0 0.0 0.00 0.01 0.01 77 1011.2
20260902153120 73 201 1.0 1.0 0.00 0.01 0.01 79 1011.2
20260902152617 73 29 3.0 3.0 0.00 0.01 0.01 80 1011.3
20260902152112 73 168 1.0 1.0 0.00 0.01 0.01 80 1011.2
20260902151608 73 206 0.0 0.0 0.00 0.01 0.01 80 1011.4
20260902151107 72 192 0.0 1.0 0.00 0.01 0.01 80 1011.3
20260902150602 73 189 0.0 0.0 0.00 0.01 0.01 80 1011.3
20260902150057 72 206 1.0 1.0 0.00 0.01 0.01 79 1011.5
20260902145552 73 192 1.0 1.0 0.00 0.01 0.01 81 1011.6
20260902145051 72 187 0.0 0.0 0.00 0.01 0.01 80 1011.6
20260902144548 72 185 0.0 1.0 0.00 0.01 0.01 81 1011.7
20260902144043 71 206 0.0 0.0 0.00 0.01 0.01 81 1011.6
20260902143538 71 200 0.0 0.0 0.00 0.01 0.01 82 1011.6
20260902143034 71 198 0.0 0.0 0.00 0.01 0.01 82 1011.5
20260902142529 70 197 0.0 1.0 0.00 0.01 0.01 84 1011.5
20260902142025 70 197 0.0 1.0 0.00 0.01 0.01 83 1011.6
20260902141524 70 185 1.0 1.0 0.00 0.01 0.01 84 1011.6
20260902141019 70 205 0.0 0.0 0.00 0.01 0.01 85 1011.7
20260902140514 69 200 0.0 0.0 0.00 0.01 0.01 86 1011.6
20260902140010 69 206 0.0 0.0 0.00 0.01 0.01 86 1011.8
20260902135504 68 208 0.0 0.0 0.00 0.01 0.01 87 1011.9
20260902135004 68 200 0.0 0.0 0.00 0.01 0.01 88 1011.9
20260902134459 68 200 0.0 0.0 0.00 0.01 0.01 89 1012.0
20260902133954 67 189 1.0 1.0 0.00 0.01 0.01 90 1011.7
20260902133449 66 210 0.0 1.0 0.00 0.01 0.01 92 1011.8
20260902132943 66 223 0.0 0.0 0.00 0.01 0.01 93 1011.6
20260902132439 66 208 0.0 0.0 0.00 0.01 0.01 93 1011.7
20260902131933 65 248 1.0 1.0 0.00 0.01 0.01 94 1011.7
20260902131430 65 213 0.0 0.0 0.00 0.01 0.01 95 1011.9
20260902130929 65 208 0.0 0.0 0.00 0.01 0.01 95 1011.9
20260902130425 64 208 0.0 0.0 0.00 0.01 0.01 95 1012.0
20260902125920 64 205 0.0 0.0 0.00 0.01 0.01 95 1012.0
20260902125416 64 205 0.0 0.0 0.00 0.01 0.01 95 1011.8
20260902124912 64 205 0.0 0.0 0.00 0.01 0.01 95 1012.0
20260902124408 64 205 0.0 0.0 0.00 0.01 0.01 95 1011.6
20260902123903 64 205 0.0 0.0 0.00 0.01 0.01 96 1011.8
20260902123359 64 205 0.0 0.0 0.00 0.01 0.01 96 1011.8
20260902122857 64 219 0.0 0.0 0.00 0.01 0.01 96 1011.8
20260902122353 64 225 0.0 0.0 0.00 0.01 0.01 96 1012.1
20260902121848 64 219 0.0 0.0 0.00 0.01 0.01 96 1011.9
20260902121343 64 219 0.0 0.0 0.00 0.01 0.01 96 1011.8
20260902120838 64 219 0.0 0.0 0.00 0.01 0.01 96 1011.9
20260902120334 64 210 0.0 0.0 0.00 0.01 0.01 96 1011.3
20260902115828 64 210 0.0 0.0 0.00 0.01 0.01 95 1011.4
20260902115325 64 190 0.0 0.0 0.00 0.01 0.01 95 1011.4
20260902114821 64 208 0.0 1.0 0.00 0.01 0.01 95 1011.7
20260902114317 64 208 0.0 0.0 0.00 0.01 0.01 95 1011.8
20260902113816 64 208 0.0 0.0 0.00 0.01 0.01 94 1011.9
20260902113312 64 208 0.0 0.0 0.00 0.01 0.01 94 1012.0
20260902112812 64 208 0.0 0.0 0.00 0.01 0.01 94 1011.9
20260902112308 64 208 0.0 0.0 0.00 0.01 0.01 94 1011.5
20260902111803 64 208 1.0 1.0 0.00 0.01 0.01 94 1011.9
20260902111300 64 206 0.0 0.0 0.00 0.01 0.01 93 1011.6
20260902110755 65 206 0.0 0.0 0.00 0.01 0.01 93 1011.7
20260902110251 65 206 0.0 0.0 0.00 0.01 0.01 92 1012.0
20260902105751 65 206 0.0 0.0 0.00 0.01 0.01 91 1012.0
20260902105246 66 201 0.0 0.0 0.00 0.01 0.01 90 1011.7
20260902104741 66 201 0.0 0.0 0.05 0.01 0.01 89 1011.6
20260902104237 66 194 0.0 0.0 0.05 0.01 0.01 88 1011.6
20260902103736 67 209 0.0 0.0 0.00 0.00 0.00 87 1012.3
20260902103231 67 206 1.0 1.0 0.00 0.00 0.00 86 1012.3
20260902102727 67 208 0.0 1.0 0.00 0.00 0.00 86 1012.2
20260902102224 67 205 1.0 1.0 0.00 0.00 0.00 86 1012.2
20260902101719 67 205 2.0 3.0 0.00 0.00 0.00 86 1012.4
20260902101214 67 217 1.0 1.0 0.00 0.00 0.00 87 1012.3
20260902100708 67 218 1.0 1.0 0.00 0.00 0.00 87 1012.2
20260902100203 67 203 1.0 2.0 0.00 0.00 0.00 87 1012.1
20260902095702 67 215 0.0 0.0 0.00 0.00 0.00 87 1012.1
20260902095156 67 215 2.0 2.0 0.00 0.00 0.00 87 1012.0
20260902094651 67 225 0.0 0.0 0.00 0.00 0.00 87 1011.1
20260902094148 67 225 0.0 0.0 0.00 0.00 0.00 87 1011.0
20260902093646 67 230 0.0 0.0 0.00 0.00 0.00 87 1010.7
20260902093142 67 225 0.0 0.0 0.00 0.00 0.00 87 1010.5
20260902092636 67 225 0.0 0.0 0.00 0.00 0.00 87 1010.6
20260902092131 67 225 0.0 0.0 0.00 0.00 0.00 88 1010.5
20260902091626 66 236 1.0 1.0 0.00 0.00 0.00 89 1010.4
20260902091123 66 215 0.0 0.0 0.00 0.00 0.00 89 1010.5
20260902090618 66 213 0.0 0.0 0.00 0.00 0.00 90 1010.6
20260902090117 66 195 0.0 0.0 0.00 0.00 0.00 90 1010.6
20260902085612 66 195 0.0 0.0 0.00 0.00 0.00 90 1010.7
20260902085107 66 195 0.0 0.0 0.00 0.00 0.00 90 1010.7
20260902084603 66 195 0.0 0.0 0.00 0.00 0.00 90 1010.8
20260902084059 66 195 0.0 0.0 0.00 0.00 0.00 90 1011.1
20260902083554 66 195 0.0 0.0 0.00 0.00 0.00 90 1011.1
20260902083053 66 195 0.0 0.0 0.00 0.00 0.00 91 1011.1
20260902082549 66 172 0.0 0.0 0.00 0.00 0.00 91 1011.0
20260902082046 66 206 0.0 0.0 0.00 0.00 0.00 92 1011.5
20260902081542 66 206 0.0 0.0 0.00 0.00 0.00 92 1011.3
20260902081042 66 206 0.0 0.0 0.00 0.00 0.00 92 1011.5
20260902080537 66 206 0.0 0.0 0.00 0.00 0.00 91 1011.7
20260902080034 66 206 0.0 0.0 0.00 0.00 0.00 91 1011.4
20260902075533 66 206 0.0 0.0 0.00 0.00 0.00 92 1011.6
20260902075029 66 197 0.0 0.0 0.00 0.00 0.00 92 1011.4
20260902074524 66 190 0.0 0.0 0.00 0.00 0.00 92 1011.2
20260902074019 66 190 0.0 0.0 0.00 0.00 0.00 92 1011.0
20260902073515 66 204 0.0 0.0 0.00 0.00 0.00 91 1011.0
20260902073012 66 204 0.0 1.0 0.00 0.00 0.00 91 1011.3
20260902072507 66 204 0.0 0.0 0.00 0.00 0.00 90 1011.3
20260902072003 66 203 0.0 0.0 0.00 0.00 0.00 90 1011.6
20260902071502 66 203 0.0 0.0 0.00 0.00 0.00 90 1011.6
20260902070959 66 203 0.0 1.0 0.00 0.00 0.00 90 1011.8
20260902070454 66 204 1.0 1.0 0.00 0.00 0.00 90 1012.0
20260902065953 66 212 0.0 0.0 0.00 0.00 0.00 90 1011.7
20260902065448 67 212 0.0 0.0 0.00 0.00 0.00 89 1011.6
20260902064943 66 212 0.0 0.0 0.00 0.00 0.00 89 1011.9
20260902064439 67 212 0.0 0.0 0.00 0.00 0.00 89 1012.2
20260902063934 67 212 0.0 0.0 0.00 0.00 0.00 88 1012.3
20260902063434 67 212 0.0 0.0 0.00 0.00 0.00 88 1012.5
20260902062929 66 212 1.0 1.0 0.00 0.00 0.00 89 1012.3
20260902062428 66 220 0.0 0.0 0.00 0.00 0.00 89 1012.5
20260902061923 67 220 0.0 0.0 0.00 0.00 0.00 89 1012.4
20260902061418 67 220 0.0 0.0 0.00 0.00 0.00 89 1012.1
20260902060914 66 220 1.0 1.0 0.00 0.00 0.00 89 1012.0
20260902060410 65 220 0.0 0.0 0.00 0.00 0.00 91 1011.9
20260902055906 65 220 0.0 0.0 0.00 0.00 0.00 92 1011.7
20260902055402 65 220 0.0 0.0 0.00 0.00 0.00 92 1011.4
20260902054857 65 220 0.0 0.0 0.00 0.00 0.00 92 1011.3
20260902054352 65 220 0.0 0.0 0.00 0.00 0.00 92 1011.4
20260902053848 65 220 0.0 0.0 0.00 0.00 0.00 92 1011.4
20260902053343 65 220 0.0 0.0 0.00 0.00 0.00 91 1011.7
20260902052841 65 220 0.0 0.0 0.00 0.00 0.00 92 1011.8
20260902052337 65 220 0.0 0.0 0.00 0.00 0.00 93 1012.0
20260902051832 65 220 0.0 0.0 0.00 0.00 0.00 92 1012.1
20260902051326 65 220 0.0 0.0 0.00 0.00 0.00 92 1012.3
20260902050825 65 220 0.0 0.0 0.00 0.00 0.00 92 1012.4
20260902050320 65 220 0.0 0.0 0.00 0.00 0.00 92 1012.4
20260902045815 66 220 0.0 0.0 0.00 0.00 0.00 92 1012.3
20260902045311 66 220 0.0 0.0 0.00 0.00 0.00 92 1012.4
20260902044807 66 220 0.0 0.0 0.00 0.00 0.00 92 1012.1
20260902044302 66 220 0.0 0.0 0.00 0.00 0.00 92 1012.0
20260902043756 66 220 0.0 0.0 0.00 0.00 0.00 91 1011.9
20260902043252 66 220 0.0 0.0 0.00 0.00 0.00 91 1011.8
20260902042751 66 220 0.0 0.0 0.00 0.00 0.00 92 1011.8
20260902042247 66 220 0.0 0.0 0.00 0.00 0.00 92 1011.8
20260902041742 66 220 0.0 0.0 0.00 0.00 0.00 92 1011.6
20260902041241 66 220 0.0 0.0 0.00 0.00 0.00 91 1011.3
20260902040741 66 220 0.0 0.0 0.00 0.00 0.00 91 1011.3
20260902040237 66 220 0.0 0.0 0.00 0.00 0.00 91 1011.3
20260902035735 66 220 0.0 0.0 0.00 0.00 0.00 91 1011.4
20260902035231 66 220 0.0 0.0 0.00 0.00 0.00 91 1011.6
20260902034729 66 220 0.0 0.0 0.00 0.00 0.00 91 1011.8
20260902034224 66 220 0.0 0.0 0.00 0.00 0.00 90 1011.7
20260902033723 67 220 0.0 0.0 0.00 0.00 0.00 90 1011.7
20260902033218 67 220 0.0 0.0 0.00 0.00 0.00 89 1011.8
20260902032716 67 220 0.0 0.0 0.00 0.00 0.00 89 1012.1
20260902032212 67 220 0.0 0.0 0.00 0.00 0.00 89 1012.1
20260902031712 67 220 0.0 0.0 0.00 0.00 0.00 88 1012.4
20260902031207 67 220 0.0 0.0 0.00 0.00 0.00 88 1012.3
20260902030702 68 220 0.0 0.0 0.00 0.00 0.00 88 1012.2
20260902030202 68 220 0.0 0.0 0.00 0.00 0.00 88 1012.2
20260902025656 68 220 0.0 0.0 0.00 0.00 0.00 88 1011.9
20260902025151 68 220 0.0 0.0 0.00 0.00 0.00 88 1011.9
20260902024647 68 220 0.0 0.0 0.00 0.00 0.00 87 1012.0
20260902024142 68 220 0.0 0.0 0.00 0.00 0.00 87 1011.8
20260902023637 69 220 0.0 0.0 0.00 0.00 0.00 87 1011.9
20260902023132 68 220 0.0 0.0 0.00 0.00 0.00 86 1011.8
20260902022631 69 220 0.0 0.0 0.00 0.00 0.00 86 1011.7
20260902022127 69 220 0.0 0.0 0.00 0.00 0.00 86 1011.8
20260902021622 69 220 0.0 0.0 0.00 0.00 0.00 86 1011.8
20260902021117 69 221 0.0 0.0 0.00 0.00 0.00 85 1011.8
20260902020613 70 221 0.0 0.0 0.00 0.00 0.00 85 1011.9
20260902020109 70 221 0.0 0.0 0.00 0.00 0.00 84 1011.8
20260902015604 71 221 0.0 0.0 0.00 0.00 0.00 84 1011.6
20260902015100 71 221 0.0 1.0 0.00 0.00 0.00 83 1011.7
20260902014556 71 221 1.0 1.0 0.00 0.00 0.00 82 1011.7
20260902014051 71 222 1.0 1.0 0.00 0.00 0.00 81 1011.6
20260902013550 71 223 0.0 0.0 0.00 0.00 0.00 82 1011.5
20260902013046 71 224 0.0 0.0 0.00 0.00 0.00 81 1011.5
20260902012542 72 223 0.0 0.0 0.00 0.00 0.00 81 1011.4
20260902012037 73 223 0.0 0.0 0.00 0.00 0.00 80 1011.4
20260902011532 73 223 0.0 1.0 0.00 0.00 0.00 79 1011.5
20260902011032 73 223 0.0 0.0 0.00 0.00 0.00 78 1011.5
20260902010531 74 223 0.0 0.0 0.00 0.00 0.00 78 1011.2
20260902010027 74 224 0.0 0.0 0.00 0.00 0.00 78 1011.3
20260902005525 74 223 0.0 0.0 0.00 0.00 0.00 76 1011.4
20260902005022 75 228 0.0 0.0 0.00 0.00 0.00 76 1011.1
20260902004521 75 233 0.0 0.0 0.00 0.00 0.00 76 1011.1
20260902004016 76 234 0.0 0.0 0.00 0.00 0.00 74 1011.3
20260902003511 76 234 0.0 0.0 0.00 0.00 0.00 68 1011.3
20260902003007 75 234 0.0 0.0 0.00 0.00 0.00 69 1011.4
20260902002502 75 234 0.0 0.0 0.00 0.00 0.00 71 1011.5
20260902001956 75 236 0.0 0.0 0.00 0.00 0.00 73 1011.5
20260902001450 76 262 1.0 1.0 0.00 0.00 0.00 75 1011.4
20260902000946 77 233 0.0 0.0 0.00 0.00 0.00 67 1011.2
20260902000444 77 233 0.0 0.0 0.00 0.00 0.00 70 1011.6
20260901235936 78 240 0.0 0.0 0.00 0.00 0.00 65 1011.5
20260901235431 78 240 0.0 0.0 0.00 0.00 0.00 63 1011.6
20260901234926 79 240 0.0 0.0 0.00 0.00 0.00 64 1011.6
20260901234420 79 240 0.0 0.0 0.00 0.00 0.00 61 1011.8
20260901233915 79 240 0.0 0.0 0.00 0.00 0.00 60 1011.6
20260901233410 79 240 0.0 0.0 0.00 0.00 0.00 62 1011.6
20260901232906 79 240 0.0 0.0 0.00 0.00 0.00 65 1011.7
20260901232401 80 240 0.0 0.0 0.00 0.00 0.00 62 1011.5
20260901231856 80 240 0.0 0.0 0.00 0.00 0.00 61 1011.6
20260901231352 80 240 0.0 0.0 0.00 0.00 0.00 60 1011.5
20260901230849 80 240 0.0 1.0 0.00 0.00 0.00 58 1011.5
20260901230348 80 241 1.0 1.0 0.00 0.00 0.00 56 1011.6
20260901225844 80 240 0.0 0.0 0.00 0.00 0.00 58 1011.5
20260901225343 81 243 1.0 1.0 0.00 0.00 0.00 55 1011.6
20260901224838 81 241 1.0 1.0 0.00 0.00 0.00 57 1011.4
20260901224334 81 273 2.0 3.0 0.00 0.00 0.00 54 1011.6
20260901223831 81 241 0.0 0.0 0.00 0.00 0.00 58 1011.5
20260901223326 81 275 2.0 2.0 0.00 0.00 0.00 56 1011.6
20260901222821 80 250 1.0 1.0 0.00 0.00 0.00 58 1011.4
20260901222318 80 248 1.0 1.0 0.00 0.00 0.00 58 1011.6
20260901221813 80 241 0.0 1.0 0.00 0.00 0.00 59 1011.5
20260901221309 81 241 0.0 0.0 0.00 0.00 0.00 66 1011.7
20260901220808 81 241 0.0 0.0 0.00 0.00 0.00 60 1011.5
20260901220302 81 241 0.0 0.0 0.00 0.00 0.00 57 1011.5
20260901215801 81 241 0.0 0.0 0.00 0.00 0.00 56 1011.8
20260901215300 81 241 0.0 0.0 0.00 0.00 0.00 58 1011.5
20260901214759 81 241 0.0 1.0 0.00 0.00 0.00 53 1011.8
20260901214258 82 243 0.0 1.0 0.00 0.00 0.00 54 1011.9
20260901213753 82 243 0.0 1.0 0.00 0.00 0.00 52 1011.8
20260901213252 82 248 1.0 1.0 0.00 0.00 0.00 51 1011.5
20260901212752 82 244 1.0 1.0 0.00 0.00 0.00 53 1011.5
20260901212248 82 243 0.0 0.0 0.00 0.00 0.00 51 1011.3
20260901211743 82 244 0.0 1.0 0.00 0.00 0.00 51 1011.5
20260901211239 82 254 1.0 1.0 0.00 0.00 0.00 49 1011.6
20260901210735 82 240 1.0 1.0 0.00 0.00 0.00 52 1011.6
20260901210231 82 240 0.0 1.0 0.00 0.00 0.00 50 1011.5
20260901205727 83 240 0.0 1.0 0.00 0.00 0.00 49 1011.3
20260901205226 83 240 0.0 0.0 0.00 0.00 0.00 50 1011.3
20260901204722 83 240 0.0 0.0 0.00 0.00 0.00 47 1011.4